Home   Weather   Würselen   Past weeks

Flag for Germany Past Weather in Würselen, North Rhine-Westphalia, Germany — Yesterday and Last 2 Weeks

45 °F

Partly sunny.

Feels Like: 41 °F
Forecast: 41 / 50 °F
Wind: 6 mph from Northwest

Location: Geilenkirchen Airport

Current Time: Oct 21, 2016 at 1:26:12 PM

Latest Report: Oct 21, 2016 at 12:50 PM

Visibility: 5 mi

Pressure: 30.04 "Hg

Humidity: 87%

Dew Point: 41 °F

Location of WürselenLocation

Past Weather in Würselen — Graph


Würselen Temperature Yesterday

Maximum temperature yesterday: 52 °F (at 2:50 PM)
Minimum temperature yesterday: 45 °F (at 12:50 AM)
Average temperature yesterday: 48 °F

High & Low Weather Summary for the Past Weeks

High61 °F (Oct 17, 4:50 PM)100% (Oct 11, 4:50 AM)30.30 "Hg (Oct 11, 4:50 AM)
Low32 °F (Oct 11, 6:50 AM)51% (Oct 8, 3:50 PM)29.71 "Hg (Oct 14, 3:50 PM)
Average49 °F86%30.08 "Hg
* Reported Oct 6 11:50 AM — Oct 21 11:50 AM, Würselen, Weather by CustomWeather, © 2016

Note: Actual official high and low records may vary slightly from our data, if they occured in-between our weather recording intervals... More about our weather records


Würselen Weather History for the Previous 24 Hours

Scroll right to see more
Time TempWeatherWind HumidityBarometerVisibility
11:50 AM
Fri, Oct 21
45 °FPartly sunny.6 mph87%30.04 "Hg4 mi
10:50 AM45 °FBroken clouds.5 mph87%30.04 "Hg4 mi
9:50 AM45 °FFog.3 mph93%30.01 "Hg3 mi
8:50 AM43 °FFog.7 mph100%30.01 "Hg2 mi
7:50 AM45 °FFog.7 mph100%30.01 "Hg2 mi
6:50 AM45 °FDrizzle. Fog.5 mph100%29.98 "Hg1 mi
5:50 AM45 °FDrizzle. Fog.8 mph100%29.98 "Hg1 mi
4:50 AM45 °FFog.7 mph100%29.98 "Hg2 mi
3:50 AM45 °FFog.7 mph100%29.98 "Hg2 mi
2:50 AM45 °FFog.5 mph100%29.98 "Hg2 mi
1:50 AM45 °FDrizzle. Fog.3 mph100%29.98 "Hg2 mi
12:50 AM45 °FFog.5 mph93%29.98 "Hg2 mi
10:50 PM
Thu, Oct 20
45 °FFog.2 mph93%29.98 "Hg2 mi
9:50 PM45 °FFog.5 mph100%29.98 "Hg3 mi
8:50 PM46 °FFog.6 mph93%29.98 "Hg3 mi
7:50 PM46 °FFog.6 mph93%29.95 "Hg3 mi
6:50 PM46 °FFog.9 mph93%29.92 "Hg3 mi
5:50 PM48 °FLight rain. Broken clouds.2 mph94%29.89 "Hg4 mi
4:50 PM52 °FRain showers. Broken clouds.10 mph94%29.89 "Hg2 mi
3:50 PM52 °FRain showers. Broken clouds.14 mph94%29.89 "Hg2 mi
2:50 PM52 °FLight rain. Fog.13 mph94%29.89 "Hg3 mi
1:50 PM50 °FLight rain. Fog.13 mph94%29.92 "Hg3 mi
Weather by CustomWeather, © 2016

See weather overviewHow to use our weather pages